Skip Page Navigation
NASA JPL Caltech
NASA Logo - Jet Propulsion Laboratory + View the NASA Portal
+ Center for Near-Earth Object Studies
JPL Home Earth Solar System Stars & Galaxies Technology
JPL Solar System Dynamics
BODIES ORBITS EPHEMERIDES TOOLS PHYSICAL DATA DISCOVERY FAQ SITE MAP
JPL Small-Body Database Browser
Search: [ help ]  
243789 (2000 SD67)
Classification: Main-belt Asteroid          SPK-ID: 2243789
Ephemeris | Orbit Diagram | Orbital Elements | Mission Design | Physical Parameters | Discovery Circumstances | Close-Approach Data ]

[ show orbit diagram ]
Orbital Elements at Epoch 2459000.5 (2020-May-31.0) TDB
Reference: JPL 19 (heliocentric ecliptic J2000)
 Element Value Uncertainty (1-sigma)   Units 
e .2383212902171037 4.611e-08  
a 2.323875126076082 1.1219e-08 au
q 1.770046207726196 1.0848e-07 au
i 4.372980602417702 4.5828e-06 deg
node 5.439247439766413 5.3798e-05 deg
peri 305.120207373578 5.466e-05 deg
M 235.3990158651604 9.8824e-06 deg
tp 2459448.354126139890
(2021-Aug-21.85412614)
3.7638e-05 TDB
period 1293.950336988387
3.54
9.3704e-06
2.565e-08
d
yr
n .2782177875836288 2.0148e-09 deg/d
Q 2.877704044425969 1.3893e-08 au
  Orbit Determination Parameters
   # obs. used (total)      353  
   data-arc span      7124 days (19.50 yr)  
   first obs. used      2000-09-20  
   last obs. used      2020-03-23  
   planetary ephem.      DE431  
   SB-pert. ephem.      SB431-N16  
   condition code      0  
   norm. resid. RMS      .57502  
   source      ORB  
   producer      Otto Matic  
   solution date      2020-Nov-12 00:54:18  

Additional Information
 Earth MOID = .760357 au 
 Jupiter MOID = 2.41453 au 
 T_jup = 3.533 
[ hide covariance matrix ]
Orbital Elements at Epoch 2457039.5 (2015-Jan-17.0) TDB
Reference: JPL 19 (heliocentric ecliptic J2000)
 Element Value Uncertainty (1-sigma)   Units 
e .2392896371229355 4.6203e-08  
q 1.767468672166585 1.088e-07 au
tp 2456859.722156442651
(2014-Jul-21.22215644)
2.8127e-05 TDB
node 5.46971658356307 5.3783e-05 deg
peri 305.0071784699285 5.4633e-05 deg
i 4.375423429431836 4.5845e-06 deg
  Orbit Determination Parameters
   # obs. used (total)      353  
   data-arc span      7124 days (19.50 yr)  
   first obs. used      2000-09-20  
   last obs. used      2020-03-23  
   planetary ephem.      DE431  
   SB-pert. ephem.      SB431-N16  
   condition code      0  
   norm. resid. RMS      .57502  
   source      ORB  
   producer      Otto Matic  
   solution date      2020-Nov-12 00:54:18  

Additional Information
 Jupiter MOID = 2.41453 au 
 T_jup = 3.533 
Orbit Covariance (6×6)
  e q tp node peri i
e 2.134708937603967E-15 -5.011658757941402E-15 2.264908364788315E-13 -3.838531026392343E-14 7.31688466791142E-14 -8.491836610137449E-15
q -5.011658757941402E-15 1.183707032041128E-14 -4.698022941283615E-13 9.08504038465325E-14 -1.514487125214755E-13 2.000353914482164E-14
tp 2.264908364788315E-13 -4.698022941283615E-13 7.911442932746657E-10 -1.020910388681573E-12 2.83980198730677E-10 -2.29443783509996E-12
node -3.838531026392343E-14 9.08504038465325E-14 -1.020910388681573E-12 2.892656520834366E-9 -2.883048681683263E-9 -7.905216281195299E-11
peri 7.31688466791142E-14 -1.514487125214755E-13 2.83980198730677E-10 -2.883048681683263E-9 2.984755542523108E-9 7.828612224213584E-11
i -8.491836610137449E-15 2.000353914482164E-14 -2.29443783509996E-12 -7.905216281195299E-11 7.828612224213584E-11 2.101801295344447E-11

Ephemeris | Orbit Diagram | Orbital Elements | Mission Design | Physical Parameters | Discovery Circumstances | Close-Approach Data ]

Physical Parameter Table
Parameter Symbol Value Units Sigma Reference Notes
absolute magnitude H 17.0   n/a MPO470599  
diameter diameter 2.606 km 0.089 urn:nasa:pds:neowise_diameters_albedos::2.0[mainbelt] (http://adsabs.harvard.edu/abs/2011ApJ...741...68M)  
geometric albedo albedo 0.041   0.007 urn:nasa:pds:neowise_diameters_albedos::2.0[mainbelt] (http://adsabs.harvard.edu/abs/2011ApJ...741...68M)  

243789 (2000 SD67)          Discovered 2000-Sep-24 by LINEAR at Socorro
Reference: 20100726/Numbers.arcLast Updated: 2010-07-28

[ show close-approach data ]
Alternate Designations
 2000 SD67 = 2006 EP3 
Ephemeris | Orbit Diagram | Orbital Elements | Mission Design | Physical Parameters | Discovery Circumstances | Close-Approach Data ]
ABOUT SSD CREDITS/AWARDS PRIVACY/COPYRIGHT GLOSSARY LINKS
FirstGov 2021-Jan-17 23:20 UT
(server date/time)  
NASA Home Page
Site Manager:   Ryan S. Park
Webmaster  Alan B. Chamberlin